DW0494 Weather Reports


Display with metric or nautical units.
time (UTC)temp
F
wind
direction
speed
MPH
gust
MPH
rain 1hr
in
rain 24hr
in
rain mn
in
humidity
%
barometer
mb
20260901040904 74 0 0.0 0.0 0.00 0.00 0.00 74 1018.2
20260901040404 74 0 0.0 0.0 0.00 0.00 0.00 74 1018.1
20260901035403 74 0 0.0 0.0 0.00 0.00 0.00 74 1017.8
20260901034904 74 0 0.0 0.0 0.00 0.00 0.00 74 1017.9
20260901034404 74 0 0.0 0.0 0.00 0.00 0.00 74 1018.0
20260901033903 74 0 0.0 0.0 0.00 0.00 0.00 74 1017.9
20260901033403 74 0 0.0 1.0 0.00 0.00 0.00 74 1017.8
20260901032903 74 2 1.0 1.0 0.00 0.00 0.00 74 1017.8
20260901032404 74 52 1.0 2.0 0.00 0.00 0.00 74 1017.7
20260901031404 74 60 0.0 0.0 0.00 0.00 0.00 75 1017.9
20260901030904 74 60 0.0 0.0 0.00 0.00 0.00 74 1017.9
20260901030403 75 60 0.0 0.0 0.00 0.00 0.00 74 1017.9
20260901025904 74 60 0.0 0.0 0.00 0.00 0.00 75 1018.0
20260901025404 74 60 0.0 0.0 0.00 0.00 0.00 75 1018.1
20260901024904 74 60 0.0 1.0 0.00 0.00 0.00 76 1018.1
20260901024404 74 60 0.0 1.0 0.00 0.00 0.00 76 1018.0
20260901023403 75 60 0.0 1.0 0.00 0.00 0.00 75 1018.1
20260901022404 75 60 1.0 2.0 0.00 0.00 0.00 76 1018.0
20260901021904 74 60 1.0 2.0 0.00 0.00 0.00 76 1018.0
20260901021404 75 63 1.0 2.0 0.00 0.00 0.00 76 1018.0
20260901020904 75 65 1.0 2.0 0.00 0.00 0.00 76 1018.1
20260901020404 75 61 1.0 2.0 0.00 0.00 0.00 75 1018.1
20260901015404 75 49 0.0 2.0 0.00 0.00 0.00 76 1018.3
20260901014403 75 53 1.0 2.0 0.00 0.00 0.00 77 1018.3
20260901013904 75 39 1.0 2.0 0.00 0.00 0.00 77 1018.4
20260901013403 75 44 1.0 3.0 0.00 0.00 0.00 77 1018.4
20260901012403 75 58 1.0 3.0 0.00 0.00 0.00 77 1018.5
20260901011904 74 45 2.0 3.0 0.00 0.00 0.00 77 1018.5
20260901011403 74 57 1.0 1.0 0.00 0.00 0.00 78 1018.5
20260901010903 74 59 0.0 1.0 0.00 0.00 0.00 79 1018.6
20260901010403 74 59 0.0 1.0 0.00 0.00 0.00 80 1018.7
20260901005403 74 59 0.0 0.0 0.00 0.00 0.00 80 1018.7
20260901004904 74 59 0.0 0.0 0.00 0.00 0.00 79 1018.7
20260901004404 74 59 0.0 0.0 0.00 0.00 0.00 80 1018.7
20260901003904 74 59 0.0 0.0 0.00 0.00 0.00 80 1018.7
20260901003404 74 59 0.0 0.0 0.00 0.00 0.00 79 1018.8
20260901002904 74 59 0.0 0.0 0.00 0.00 0.00 79 1018.8
20260901001903 74 59 0.0 1.0 0.00 0.00 0.00 79 1018.6
20260901001404 74 59 0.0 2.0 0.00 0.00 0.00 79 1018.5
20260901000904 74 59 0.0 2.0 0.00 0.00 0.00 80 1018.4
20260901000405 74 60 1.0 2.0 0.00 0.00 0.00 79 1018.2
20260831235903 74 42 0.0 0.0 0.00 0.00 0.00 78 1018.2
20260831235403 74 42 0.0 0.0 0.00 0.00 0.00 79 1018.2
20260831234403 75 42 0.0 1.0 0.00 0.00 0.00 78 1018.3
20260831233404 75 42 0.0 2.0 0.00 0.00 0.00 78 1018.5
20260831232904 75 47 1.0 2.0 0.00 0.00 0.00 78 1018.5
20260831232404 75 72 0.0 1.0 0.00 0.00 0.00 78 1018.5
20260831231904 75 72 0.0 1.0 0.00 0.00 0.00 78 1018.6
20260831231404 75 72 0.0 1.0 0.00 0.00 0.00 79 1018.5
20260831230404 75 84 0.0 1.0 0.00 0.00 0.00 79 1018.6
20260831225903 75 84 0.0 1.0 0.00 0.00 0.00 79 1018.7
20260831225403 74 84 0.0 1.0 0.00 0.00 0.00 79 1018.8
20260831224904 74 84 0.0 1.0 0.00 0.00 0.00 79 1018.9
20260831223904 75 84 0.0 0.0 0.00 0.00 0.00 78 1018.8
20260831223404 75 84 0.0 0.0 0.00 0.00 0.00 78 1018.7
20260831222903 75 84 0.0 0.0 0.00 0.00 0.00 78 1018.7
20260831222403 75 84 0.0 1.0 0.00 0.00 0.00 78 1018.6
20260831221903 75 84 0.0 1.0 0.00 0.00 0.00 78 1018.6
20260831220404 75 84 0.0 0.0 0.00 0.00 0.00 77 1018.8
20260831215904 75 84 0.0 0.0 0.00 0.00 0.00 77 1018.9
20260831215403 75 84 0.0 0.0 0.00 0.00 0.00 77 1018.9
20260831214903 75 84 0.0 0.0 0.00 0.00 0.00 77 1018.9
20260831214403 75 84 0.0 0.0 0.00 0.00 0.00 77 1018.9
20260831213404 75 84 0.0 1.0 0.00 0.00 0.00 77 1019.0
20260831212904 76 84 0.0 1.0 0.00 0.00 0.00 76 1019.0
20260831212404 76 84 0.0 1.0 0.00 0.00 0.00 76 1018.9
20260831211903 76 84 0.0 1.0 0.00 0.00 0.00 76 1018.9
20260831211403 76 84 0.0 2.0 0.00 0.00 0.00 76 1019.0
20260831210904 76 84 1.0 2.0 0.00 0.00 0.00 76 1019.0
20260831205404 76 101 0.0 0.0 0.00 0.00 0.00 76 1019.0
20260831204404 76 101 0.0 0.0 0.00 0.00 0.00 75 1019.0
20260831203903 76 101 0.0 0.0 0.00 0.00 0.00 75 1019.0
20260831203403 76 101 0.0 0.0 0.00 0.00 0.00 75 1019.1
20260831202904 76 101 0.0 0.0 0.00 0.00 0.00 75 1019.2
20260831202404 76 101 0.0 0.0 0.00 0.00 0.00 75 1019.1
20260831201403 76 101 0.0 0.0 0.00 0.00 0.00 74 1019.0
20260831200903 76 101 0.0 1.0 0.00 0.00 0.00 74 1018.9
20260831200404 76 101 0.0 1.0 0.00 0.00 0.00 75 1018.8
20260831195904 76 101 0.0 0.0 0.00 0.00 0.00 75 1018.7
20260831195403 76 101 0.0 0.0 0.00 0.00 0.00 75 1018.8
20260831194904 76 101 0.0 0.0 0.00 0.00 0.00 75 1018.8
20260831194404 76 101 0.0 1.0 0.00 0.00 0.00 75 1018.7
20260831193904 76 101 0.0 1.0 0.00 0.00 0.00 75 1018.7
20260831193403 76 101 0.0 1.0 0.00 0.00 0.00 75 1018.6
20260831192904 76 101 0.0 1.0 0.00 0.00 0.00 75 1018.5
20260831192404 76 101 0.0 1.0 0.00 0.00 0.00 75 1018.6
20260831191904 76 101 0.0 0.0 0.00 0.00 0.00 75 1018.6
20260831191404 77 101 0.0 0.0 0.00 0.00 0.00 74 1018.5
20260831190403 77 101 0.0 0.0 0.00 0.00 0.00 74 1018.5
20260831185904 77 101 0.0 0.0 0.00 0.00 0.00 73 1018.5
20260831185404 77 101 0.0 0.0 0.00 0.00 0.00 73 1018.5
20260831184904 77 101 0.0 0.0 0.00 0.00 0.00 73 1018.4
20260831184404 77 101 0.0 0.0 0.00 0.00 0.00 73 1018.4
20260831183903 77 101 0.0 1.0 0.00 0.00 0.00 73 1018.5
20260831183405 77 101 0.0 1.0 0.00 0.00 0.00 73 1018.4
20260831182904 77 101 0.0 1.0 0.00 0.00 0.00 73 1018.4
20260831182404 77 101 0.0 1.0 0.00 0.00 0.00 72 1018.4
20260831181904 78 101 0.0 1.0 0.00 0.00 0.00 72 1018.3
20260831181404 78 101 0.0 1.0 0.00 0.00 0.00 72 1018.3
20260831180904 78 102 0.0 1.0 0.00 0.00 0.00 71 1018.3
20260831180403 78 101 0.0 1.0 0.00 0.00 0.00 71 1018.2
20260831175904 78 186 0.0 0.0 0.00 0.00 0.00 71 1018.2
20260831174903 79 210 0.0 0.0 0.00 0.00 0.00 71 1018.0
20260831174403 79 210 0.0 1.0 0.00 0.00 0.00 71 1018.0
20260831173403 79 210 0.0 1.0 0.00 0.00 0.00 70 1018.0
20260831172404 80 220 0.0 3.0 0.00 0.00 0.00 70 1017.8
20260831171903 80 204 1.0 3.0 0.00 0.00 0.00 69 1017.8
20260831171404 81 160 0.0 0.0 0.00 0.00 0.00 68 1017.8
20260831170904 81 161 0.0 3.0 0.00 0.00 0.00 68 1017.7
20260831170403 81 213 1.0 3.0 0.00 0.00 0.00 68 1017.7
20260831165904 82 216 0.0 3.0 0.00 0.00 0.00 67 1017.7
20260831165404 82 175 0.0 3.0 0.00 0.00 0.00 67 1017.7
20260831164903 83 221 1.0 3.0 0.00 0.00 0.00 66 1017.6
20260831164403 83 210 1.0 3.0 0.00 0.00 0.00 65 1017.6
20260831162904 85 211 3.0 6.0 0.00 0.00 0.00 62 1017.4
20260831162404 86 201 1.0 3.0 0.00 0.00 0.00 61 1017.3
20260831160903 86 201 2.0 7.0 0.00 0.00 0.00 60 1017.3
20260831160403 87 213 2.0 8.0 0.00 0.00 0.00 60 1017.3
20260831155904 87 201 3.0 8.0 0.00 0.00 0.00 59 1017.3
20260831155404 88 217 2.0 6.0 0.00 0.00 0.00 59 1017.3
20260831154905 88 214 3.0 6.0 0.00 0.00 0.00 58 1017.4
20260831153403 90 205 3.0 6.0 0.00 0.00 0.00 55 1017.5
20260831152904 90 169 2.0 6.0 0.00 0.00 0.00 54 1017.5
20260831152403 90 203 3.0 6.0 0.00 0.00 0.00 53 1017.5
20260831151403 90 215 1.0 7.0 0.00 0.00 0.00 53 1017.5
20260831150903 90 217 3.0 7.0 0.00 0.00 0.00 53 1017.5
20260831150404 90 184 1.0 7.0 0.00 0.00 0.00 54 1017.5
20260831145905 90 132 3.0 9.0 0.00 0.00 0.00 54 1017.4
20260831145403 90 216 3.0 9.0 0.00 0.00 0.00 54 1017.5
20260831144904 90 206 2.0 7.0 0.00 0.00 0.00 54 1017.4
20260831144404 90 165 2.0 8.0 0.00 0.00 0.00 55 1017.5
20260831143904 90 204 5.0 9.0 0.00 0.00 0.00 55 1017.4
20260831143404 91 217 5.0 9.0 0.00 0.00 0.00 53 1017.5
20260831142904 91 205 2.0 8.0 0.00 0.00 0.00 53 1017.6
20260831142404 91 205 4.0 8.0 0.00 0.00 0.00 52 1017.6
20260831141904 91 213 2.0 8.0 0.00 0.00 0.00 52 1017.6
20260831141404 92 224 2.0 6.0 0.00 0.00 0.00 51 1017.6
20260831140904 92 196 1.0 6.0 0.00 0.00 0.00 51 1017.7
20260831140404 91 195 2.0 9.0 0.00 0.00 0.00 52 1017.8
20260831135404 91 213 4.0 9.0 0.00 0.00 0.00 52 1017.7
20260831134904 91 205 3.0 9.0 0.00 0.00 0.00 51 1017.9
20260831134404 91 203 4.0 9.0 0.00 0.00 0.00 51 1017.8
20260831133904 91 200 3.0 9.0 0.00 0.00 0.00 51 1017.9
20260831133404 91 202 3.0 9.0 0.00 0.00 0.00 51 1017.9
20260831132904 91 217 5.0 12.0 0.00 0.00 0.00 52 1017.9
20260831132404 91 215 5.0 12.0 0.00 0.00 0.00 51 1017.9
20260831131904 91 210 3.0 12.0 0.00 0.00 0.00 50 1017.9
20260831130904 92 212 4.0 8.0 0.00 0.00 0.00 51 1018.0
20260831130404 91 216 2.0 9.0 0.00 0.00 0.00 52 1018.1
20260831125404 92 205 4.0 8.0 0.00 0.00 0.00 51 1018.1
20260831124904 92 224 3.0 7.0 0.00 0.00 0.00 51 1018.2
20260831124404 92 207 3.0 12.0 0.00 0.00 0.00 51 1018.2
20260831123904 91 213 3.0 12.0 0.00 0.00 0.00 52 1018.4
20260831123404 91 213 4.0 9.0 0.00 0.00 0.00 51 1018.4
20260831122903 91 226 2.0 10.0 0.00 0.00 0.00 53 1018.5
20260831121404 91 192 2.0 8.0 0.00 0.00 0.00 52 1018.7
20260831120904 91 206 5.0 8.0 0.00 0.00 0.00 53 1018.7
20260831115904 92 220 3.0 8.0 0.00 0.00 0.00 52 1018.8
20260831115404 91 204 2.0 7.0 0.00 0.00 0.00 53 1018.8
20260831114904 91 205 2.0 7.0 0.00 0.00 0.00 53 1018.9
20260831114404 91 210 2.0 8.0 0.00 0.00 0.00 54 1019.0
20260831113404 89 239 2.0 9.0 0.00 0.00 0.00 57 1019.0
20260831112903 89 228 5.0 12.0 0.00 0.00 0.00 57 1019.1
20260831112404 89 256 4.0 12.0 0.00 0.00 0.00 56 1019.1
20260831111904 90 262 3.0 12.0 0.00 0.00 0.00 56 1019.2
20260831111404 90 214 2.0 9.0 0.00 0.00 0.00 56 1019.2
20260831110904 90 192 3.0 9.0 0.00 0.00 0.00 57 1019.2
20260831110404 90 232 3.0 8.0 0.00 0.00 0.00 55 1019.2
20260831105904 90 240 3.0 8.0 0.00 0.00 0.00 56 1019.2
20260831105404 90 220 3.0 8.0 0.00 0.00 0.00 54 1019.3
20260831104904 90 225 3.0 9.0 0.00 0.00 0.00 55 1019.2
20260831104404 90 255 3.0 9.0 0.00 0.00 0.00 56 1019.4
20260831103903 89 223 4.0 8.0 0.00 0.00 0.00 54 1019.5
20260831103404 90 240 3.0 8.0 0.00 0.00 0.00 54 1019.5
20260831102903 90 214 3.0 7.0 0.00 0.00 0.00 54 1019.4
20260831102404 90 240 2.0 9.0 0.00 0.00 0.00 52 1019.5
20260831101904 91 237 3.0 9.0 0.00 0.00 0.00 52 1019.4
20260831101404 90 202 2.0 6.0 0.00 0.00 0.00 53 1019.6
20260831100904 90 243 1.0 7.0 0.00 0.00 0.00 54 1019.6
20260831095903 90 241 2.0 7.0 0.00 0.00 0.00 55 1019.7
20260831095403 90 202 1.0 7.0 0.00 0.00 0.00 55 1019.8
20260831094904 90 204 1.0 7.0 0.00 0.00 0.00 58 1019.8
20260831093404 88 225 2.0 7.0 0.00 0.00 0.00 64 1019.9
20260831092404 88 276 2.0 6.0 0.00 0.00 0.00 64 1019.9
20260831091904 88 236 1.0 8.0 0.00 0.00 0.00 65 1020.0
20260831091403 88 233 1.0 8.0 0.00 0.00 0.00 64 1020.1
20260831090404 88 247 3.0 7.0 0.00 0.00 0.00 63 1020.3
20260831085903 88 234 2.0 8.0 0.00 0.00 0.00 62 1020.2
20260831085403 88 209 3.0 8.0 0.00 0.00 0.00 60 1020.3
20260831084904 89 232 3.0 8.0 0.00 0.00 0.00 61 1020.3
20260831084404 88 212 2.0 6.0 0.00 0.00 0.00 58 1020.3
20260831083904 88 227 2.0 6.0 0.00 0.00 0.00 55 1020.3
20260831083404 88 223 1.0 6.0 0.00 0.00 0.00 56 1020.3
20260831082904 88 212 2.0 7.0 0.00 0.00 0.00 55 1020.3
20260831082404 88 202 3.0 7.0 0.00 0.00 0.00 56 1020.3
20260831081904 88 215 2.0 7.0 0.00 0.00 0.00 57 1020.2
20260831081403 88 238 1.0 7.0 0.00 0.00 0.00 57 1020.2
20260831080403 88 204 2.0 6.0 0.00 0.00 0.00 56 1020.2
20260831075903 88 212 2.0 6.0 0.00 0.00 0.00 56 1020.3
20260831075404 88 108 0.0 3.0 0.00 0.00 0.00 57 1020.2
20260831074903 88 219 1.0 3.0 0.00 0.00 0.00 58 1020.2
20260831074404 87 179 1.0 3.0 0.00 0.00 0.00 58 1020.3
20260831073904 87 214 1.0 3.0 0.00 0.00 0.00 59 1020.3
20260831073404 74 0 0.0 0.0 0.00 0.00 0.00 67 1020.2
20260831072904 74 0 0.0 0.0 0.00 0.00 0.00 67 1020.2
20260831072404 74 0 0.0 0.0 0.00 0.00 0.00 67 1020.0
20260831071904 74 0 0.0 0.0 0.00 0.00 0.00 67 1020.1
20260831071403 74 0 0.0 0.0 0.00 0.00 0.00 67 1020.2
20260831070904 74 0 0.0 0.0 0.00 0.00 0.00 67 1020.2
20260831065904 74 0 0.0 0.0 0.00 0.00 0.00 67 1020.2
20260831065404 74 0 0.0 0.0 0.00 0.00 0.00 67 1020.1
20260831064904 74 0 0.0 0.0 0.00 0.00 0.00 67 1020.1
20260831064404 74 0 0.0 0.0 0.00 0.00 0.00 67 1020.1
20260831063904 74 0 0.0 0.0 0.00 0.00 0.00 67 1020.1
20260831063404 74 0 0.0 0.0 0.00 0.00 0.00 67 1020.1
20260831062904 74 0 0.0 0.0 0.00 0.00 0.00 67 1020.1
20260831061904 74 0 0.0 0.0 0.00 0.00 0.00 67 1020.1
20260831060403 74 0 0.0 0.0 0.00 0.00 0.00 67 1020.1
20260831055404 74 0 0.0 0.0 0.00 0.00 0.00 67 1020.2
20260831054404 74 0 0.0 0.0 0.00 0.00 0.00 67 1020.1
20260831053904 74 0 0.0 0.0 0.00 0.00 0.00 67 1020.0
20260831052904 74 0 0.0 0.0 0.00 0.00 0.00 67 1019.8
20260831051404 74 0 0.0 0.0 0.00 0.00 0.00 67 1019.7
20260831050904 74 0 0.0 0.0 0.00 0.00 0.00 67 1019.7
20260831050404 74 0 0.0 0.0 0.00 0.00 0.00 67 1019.8
20260831045904 74 0 0.0 0.0 0.00 0.00 0.00 67 1019.6
20260831045404 74 0 0.0 0.0 0.00 0.00 0.00 67 1019.6
20260831044403 74 0 0.0 0.0 0.00 0.00 0.00 67 1019.6
20260831043903 74 0 0.0 0.0 0.00 0.00 0.00 67 1019.5
20260831043404 74 0 0.0 0.0 0.00 0.00 0.00 67 1019.5
20260831042904 74 0 0.0 0.0 0.00 0.00 0.00 67 1019.5
20260831042403 74 0 0.0 0.0 0.00 0.00 0.00 67 1019.5
20260831041904 74 0 0.0 0.0 0.00 0.00 0.00 67 1019.4
20260831041404 74 0 0.0 0.0 0.00 0.00 0.00 67 1019.4